"datetime","temp","dp","rain_mm","uv","solar","mb","wind_mph","gust_mph","windchill","rh"
"2015-12-30 00:00:00",10.6,9.5,0.0,0.0,0,1017.8,2,9,"",93
"2015-12-30 00:01:00",10.6,9.5,0.0,0.0,0,1017.8,5,9,"",93
"2015-12-30 00:02:00",10.6,9.5,0.0,0.0,0,1017.7,5,6,"",93
"2015-12-30 00:03:00",10.6,9.5,0.0,0.0,0,1017.8,3,9,"",93
"2015-12-30 00:04:00",10.6,9.7,0.0,0.0,0,1017.8,3,5,"",94
"2015-12-30 00:05:00",10.6,9.7,0.0,0.0,0,1017.7,3,7,"",94
"2015-12-30 00:06:00",10.6,9.7,0.0,0.0,0,1017.7,5,14,"",94
"2015-12-30 00:07:00",10.6,9.7,0.0,0.0,0,1017.7,5,7,"",94
"2015-12-30 00:08:00",10.6,9.7,0.0,0.0,0,1017.6,3,9,"",94
"2015-12-30 00:09:00",10.6,9.7,0.0,0.0,0,1017.6,5,10,"",94
"2015-12-30 00:10:00",10.6,9.7,0.0,0.0,0,1017.5,8,17,"",94
"2015-12-30 00:11:00",10.6,9.7,0.0,0.0,0,1017.5,7,12,"",94
"2015-12-30 00:12:00",10.6,9.7,0.0,0.0,0,1017.5,6,12,"",94
"2015-12-30 00:13:00",10.6,9.7,0.0,0.0,0,1017.5,6,12,"",94
"2015-12-30 00:14:00",10.6,9.7,0.0,0.0,0,1017.5,8,12,"",94
"2015-12-30 00:15:00",10.6,9.7,0.0,0.0,0,1017.4,6,14,"",94
"2015-12-30 00:16:00",10.6,9.7,0.0,0.0,0,1017.4,8,10,"",94
"2015-12-30 00:17:00",10.6,9.7,0.0,0.0,0,1017.3,7,9,"",94
"2015-12-30 00:18:00",10.6,9.7,0.0,0.0,0,1017.3,3,5,"",94
"2015-12-30 00:19:00",10.6,9.7,0.0,0.0,0,1017.2,1,5,"",94
"2015-12-30 00:20:00",10.6,9.7,0.0,0.0,0,1017.3,3,7,"",94
"2015-12-30 00:21:00",10.6,9.7,0.0,0.0,0,1017.3,3,12,"",94
"2015-12-30 00:22:00",10.6,9.7,0.0,0.0,0,1017.2,5,12,"",94
"2015-12-30 00:23:00",10.6,9.7,0.0,0.0,0,1017.2,6,9,"",94
"2015-12-30 00:24:00",10.6,9.7,0.0,0.0,0,1017.2,5,8,"",94
"2015-12-30 00:25:00",10.6,9.7,0.0,0.0,0,1017.2,5,6,"",94
"2015-12-30 00:26:00",10.6,9.7,0.0,0.0,0,1017.1,5,9,"",94
"2015-12-30 00:27:00",10.6,9.7,0.0,0.0,0,1017.2,7,12,"",94
"2015-12-30 00:28:00",10.6,9.7,0.0,0.0,0,1017.1,7,12,"",94
"2015-12-30 00:29:00",10.6,9.7,0.0,0.0,0,1017.0,5,12,"",94
"2015-12-30 00:30:00",10.6,9.7,0.0,0.0,0,1017.0,6,8,"",94
"2015-12-30 00:31:00",10.6,9.7,0.0,0.0,0,1017.0,6,10,"",94
"2015-12-30 00:32:00",10.6,9.7,0.0,0.0,0,1016.9,5,6,"",94
"2015-12-30 00:33:00",10.6,9.7,0.0,0.0,0,1016.9,5,10,"",94
"2015-12-30 00:34:00",10.6,9.7,0.0,0.0,0,1016.9,6,12,"",94
"2015-12-30 00:35:00",10.6,9.7,0.0,0.0,0,1016.9,7,12,"",94
"2015-12-30 00:36:00",10.6,9.8,0.0,0.0,0,1016.9,8,22,"",95
"2015-12-30 00:37:00",10.7,9.9,0.0,0.0,0,1016.9,6,7,"",95
"2015-12-30 00:38:00",10.7,9.9,0.0,0.0,0,1016.8,5,17,"",95
"2015-12-30 00:39:00",10.7,9.9,0.0,0.0,0,1016.9,9,17,"",95
"2015-12-30 00:40:00",10.7,9.9,0.0,0.0,0,1016.7,5,5,"",95
"2015-12-30 00:41:00",10.7,9.9,0.0,0.0,0,1016.7,6,20,"",95
"2015-12-30 00:42:00",10.7,9.9,0.0,0.0,0,1016.7,9,14,"",95
"2015-12-30 00:43:00",10.7,9.9,0.0,0.0,0,1016.7,6,7,"",95
"2015-12-30 00:44:00",10.7,10.0,0.0,0.0,0,1016.7,3,9,"",95
"2015-12-30 00:45:00",10.7,10.0,0.0,0.0,0,1016.7,5,12,"",95
"2015-12-30 00:46:00",10.7,10.0,0.0,0.0,0,1016.7,8,17,"",95
"2015-12-30 00:47:00",10.7,10.0,0.0,0.0,0,1016.6,6,7,"",95
"2015-12-30 00:48:00",10.7,10.0,0.0,0.0,0,1016.7,5,12,"",95
"2015-12-30 00:49:00",10.7,10.0,0.0,0.0,0,1016.6,6,9,"",95
"2015-12-30 00:50:00",10.8,10.0,0.0,0.0,0,1016.6,6,6,"",95
"2015-12-30 00:51:00",10.8,10.0,0.0,0.0,0,1016.6,6,16,"",95
"2015-12-30 00:52:00",10.8,10.0,0.0,0.0,0,1016.6,7,10,"",95
"2015-12-30 00:53:00",10.8,10.0,0.0,0.0,0,1016.5,7,10,"",95
"2015-12-30 00:54:00",10.8,9.9,0.0,0.0,0,1016.6,6,10,"",94
"2015-12-30 00:55:00",10.8,9.9,0.0,0.0,0,1016.5,6,7,"",94
"2015-12-30 00:56:00",10.8,9.9,0.0,0.0,0,1016.5,5,8,"",94
"2015-12-30 00:57:00",10.8,9.9,0.0,0.0,0,1016.5,6,15,"",94
"2015-12-30 00:58:00",10.8,9.9,0.0,0.0,0,1016.5,7,15,"",94
"2015-12-30 00:59:00",10.8,9.9,0.0,0.0,0,1016.5,7,16,"",94
"2015-12-30 01:00:00",10.8,9.9,0.0,0.0,0,1016.4,6,9,"",94
"2015-12-30 01:01:00",10.8,9.9,0.0,0.0,0,1016.4,7,12,"",94
"2015-12-30 01:02:00",10.8,9.9,0.0,0.0,0,1016.4,6,7,"",94
"2015-12-30 01:03:00",10.8,9.9,0.0,0.0,0,1016.4,6,25,"",94
"2015-12-30 01:04:00",10.8,9.9,0.0,0.0,0,1016.5,8,9,"",94
"2015-12-30 01:05:00",10.8,9.9,0.0,0.0,0,1016.4,5,8,"",94
"2015-12-30 01:06:00",10.8,9.9,0.0,0.0,0,1016.4,5,12,"",94
"2015-12-30 01:07:00",10.8,9.9,0.0,0.0,0,1016.3,6,12,"",94
"2015-12-30 01:08:00",10.8,9.9,0.0,0.0,0,1016.3,5,7,"",94
"2015-12-30 01:09:00",10.8,9.9,0.0,0.0,0,1016.4,5,8,"",94
"2015-12-30 01:10:00",10.9,9.9,0.0,0.0,0,1016.4,6,17,"",94
"2015-12-30 01:11:00",10.9,10.0,0.0,0.0,0,1016.4,9,17,"",94
"2015-12-30 01:12:00",10.9,10.0,0.0,0.0,0,1016.4,7,12,"",94
"2015-12-30 01:13:00",10.9,10.0,0.0,0.0,0,1016.5,7,15,"",94
"2015-12-30 01:14:00",10.9,10.0,0.0,0.0,0,1016.5,8,12,"",94
"2015-12-30 01:15:00",10.9,10.0,0.0,0.0,0,1016.6,6,21,"",94
"2015-12-30 01:16:00",10.9,10.0,0.0,0.0,0,1016.5,7,21,"",94
"2015-12-30 01:17:00",10.9,10.0,0.0,0.0,0,1016.4,7,12,"",94
"2015-12-30 01:18:00",10.9,10.0,0.0,0.0,0,1016.4,6,10,"",94
"2015-12-30 01:19:00",10.9,10.0,0.0,0.0,0,1016.5,6,12,"",94
"2015-12-30 01:20:00",10.9,10.0,0.0,0.0,0,1016.4,5,7,"",94
"2015-12-30 01:21:00",10.9,10.0,0.0,0.0,0,1016.5,6,10,"",94
"2015-12-30 01:22:00",11.0,10.0,0.0,0.0,0,1016.4,5,7,"",94
"2015-12-30 01:23:00",11.0,10.0,0.0,0.0,0,1016.4,6,12,"",94
"2015-12-30 01:24:00",11.0,10.1,0.0,0.0,0,1016.4,7,12,"",94
"2015-12-30 01:25:00",11.0,10.1,0.0,0.0,0,1016.4,6,10,"",94
"2015-12-30 01:26:00",11.0,10.1,0.0,0.0,0,1016.4,7,15,"",94
"2015-12-30 01:27:00",11.0,9.9,0.0,0.0,0,1016.4,8,16,"",93
"2015-12-30 01:28:00",11.0,9.9,0.0,0.0,0,1016.4,9,12,"",93
"2015-12-30 01:29:00",11.0,10.0,0.0,0.0,0,1016.3,7,24,"",94
"2015-12-30 01:30:00",11.1,10.0,0.0,0.0,0,1016.3,8,10,"",93
"2015-12-30 01:31:00",11.1,10.0,0.0,0.0,0,1016.4,5,8,"",93
"2015-12-30 01:32:00",11.1,10.0,0.0,0.0,0,1016.3,5,9,"",93
"2015-12-30 01:33:00",11.1,10.0,0.0,0.0,0,1016.3,5,9,"",93
"2015-12-30 01:34:00",11.1,10.0,0.0,0.0,0,1016.3,3,10,"",93
"2015-12-30 01:35:00",11.1,10.0,0.0,0.0,0,1016.3,5,10,"",93
"2015-12-30 01:36:00",11.1,10.0,0.0,0.0,0,1016.3,7,10,"",93
"2015-12-30 01:37:00",11.1,10.0,0.0,0.0,0,1016.3,5,10,"",93
"2015-12-30 01:38:00",11.1,10.0,0.0,0.0,0,1016.2,8,15,"",93
"2015-12-30 01:39:00",11.1,10.0,0.0,0.0,0,1016.2,8,12,"",93
"2015-12-30 01:40:00",11.2,10.1,0.0,0.0,0,1016.1,8,12,"",93
"2015-12-30 01:41:00",11.2,10.1,0.0,0.0,0,1016.1,5,7,"",93
"2015-12-30 01:42:00",11.2,10.1,0.0,0.0,0,1016.1,5,12,"",93
"2015-12-30 01:43:00",11.2,10.1,0.0,0.0,0,1016.0,6,18,"",93
"2015-12-30 01:44:00",11.2,9.9,0.0,0.0,0,1016.0,8,12,"",92
"2015-12-30 01:45:00",11.2,9.9,0.0,0.0,0,1016.0,8,12,"",92
"2015-12-30 01:46:00",11.2,9.9,0.0,0.0,0,1016.0,6,10,"",92
"2015-12-30 01:47:00",11.2,9.9,0.0,0.0,0,1015.9,3,8,"",92
"2015-12-30 01:48:00",11.2,10.0,0.0,0.0,0,1015.9,6,12,"",92
"2015-12-30 01:49:00",11.2,10.0,0.0,0.0,0,1016.0,3,12,"",92
"2015-12-30 01:50:00",11.2,10.0,0.0,0.0,0,1015.9,6,12,"",92
"2015-12-30 01:51:00",11.2,10.0,0.0,0.0,0,1015.9,5,8,"",92
"2015-12-30 01:52:00",11.2,10.0,0.0,0.0,0,1015.9,5,15,"",92
"2015-12-30 01:53:00",11.2,10.0,0.0,0.0,0,1015.9,7,20,"",92
"2015-12-30 01:54:00",11.3,10.0,0.0,0.0,0,1015.9,8,18,"",92
"2015-12-30 01:55:00",11.3,10.0,0.0,0.0,0,1015.8,8,14,"",92
"2015-12-30 01:56:00",11.3,10.0,0.0,0.0,0,1015.8,3,12,"",92
"2015-12-30 01:57:00",11.3,10.0,0.0,0.0,0,1015.9,6,12,"",92
"2015-12-30 01:58:00",11.3,10.0,0.0,0.0,0,1015.8,3,6,"",92
"2015-12-30 01:59:00",11.3,10.0,0.0,0.0,0,1015.8,3,12,"",92
"2015-12-30 02:00:00",11.3,10.0,0.0,0.0,0,1015.8,6,12,"",92
"2015-12-30 02:01:00",11.3,10.0,0.0,0.0,0,1015.8,5,7,"",92
"2015-12-30 02:02:00",11.3,9.9,0.0,0.0,0,1015.8,5,12,"",91
"2015-12-30 02:03:00",11.3,9.9,0.0,0.0,0,1015.7,7,12,"",91
"2015-12-30 02:04:00",11.3,9.9,0.0,0.0,0,1015.6,6,6,"",91
"2015-12-30 02:05:00",11.3,9.9,0.0,0.0,0,1015.7,5,7,"",91
"2015-12-30 02:06:00",11.3,9.9,0.0,0.0,0,1015.7,5,7,"",91
"2015-12-30 02:07:00",11.3,9.9,0.0,0.0,0,1015.5,3,5,"",91
"2015-12-30 02:08:00",11.3,9.9,0.0,0.0,0,1015.5,6,14,"",91
"2015-12-30 02:09:00",11.3,9.9,0.0,0.0,0,1015.6,8,15,"",91
"2015-12-30 02:10:00",11.3,9.9,0.0,0.0,0,1015.6,8,12,"",91
"2015-12-30 02:11:00",11.3,9.9,0.0,0.0,0,1015.6,7,16,"",91
"2015-12-30 02:12:00",11.3,9.9,0.0,0.0,0,1015.6,10,16,"",91
"2015-12-30 02:13:00",11.2,9.8,0.0,0.0,0,1015.7,8,14,"",91
"2015-12-30 02:14:00",11.2,9.8,0.0,0.0,0,1015.8,10,23,"",91
"2015-12-30 02:15:00",11.2,9.6,0.0,0.0,0,1015.6,10,10,"",90
"2015-12-30 02:16:00",11.4,9.8,0.0,0.0,0,1015.5,6,22,"",90
"2015-12-30 02:17:00",11.4,9.9,0.0,0.0,0,1015.5,5,17,"",90
"2015-12-30 02:18:00",11.4,9.9,0.0,0.0,0,1015.5,5,17,"",90
"2015-12-30 02:19:00",11.4,9.9,0.0,0.0,0,1015.5,3,5,"",90
"2015-12-30 02:20:00",11.4,9.9,0.0,0.0,0,1015.5,5,14,"",90
"2015-12-30 02:21:00",11.4,9.9,0.0,0.0,0,1015.4,5,10,"",90
"2015-12-30 02:22:00",11.4,9.9,0.0,0.0,0,1015.4,7,12,"",90
"2015-12-30 02:23:00",11.4,9.9,0.0,0.0,0,1015.5,6,12,"",90
"2015-12-30 02:24:00",11.4,9.9,0.0,0.0,0,1015.5,7,10,"",90
"2015-12-30 02:25:00",11.4,9.9,0.0,0.0,0,1015.4,7,10,"",90
"2015-12-30 02:26:00",11.4,9.9,0.0,0.0,0,1015.4,6,9,"",90
"2015-12-30 02:27:00",11.4,9.9,0.0,0.0,0,1015.5,6,9,"",90
"2015-12-30 02:28:00",11.4,9.9,0.0,0.0,0,1015.4,6,14,"",90
"2015-12-30 02:29:00",11.4,9.9,0.0,0.0,0,1015.5,8,9,"",90
"2015-12-30 02:30:00",11.4,9.9,0.0,0.0,0,1015.5,8,21,"",90
"2015-12-30 02:31:00",11.4,9.9,0.0,0.0,0,1015.4,8,15,"",90
"2015-12-30 02:32:00",11.4,9.9,0.0,0.0,0,1015.4,9,26,"",90
"2015-12-30 02:33:00",11.4,9.9,0.0,0.0,0,1015.4,10,20,"",90
"2015-12-30 02:34:00",11.4,9.9,0.0,0.0,0,1015.4,8,20,"",90
"2015-12-30 02:35:00",11.4,9.9,0.0,0.0,0,1015.3,6,14,"",90
"2015-12-30 02:36:00",11.4,9.9,0.0,0.0,0,1015.3,6,6,"",90
"2015-12-30 02:37:00",11.3,9.8,0.0,0.0,0,1015.3,5,8,"",90
"2015-12-30 02:38:00",11.4,9.9,0.0,0.0,0,1015.4,6,10,"",90
"2015-12-30 02:39:00",11.2,9.6,0.0,0.0,0,1015.2,6,12,"",90
"2015-12-30 02:40:00",11.2,9.6,0.0,0.0,0,1015.2,8,15,"",90
"2015-12-30 02:41:00",11.2,9.6,0.0,0.0,0,1015.3,7,12,"",90
"2015-12-30 02:42:00",11.2,9.6,0.0,0.0,0,1015.2,3,5,"",90
"2015-12-30 02:43:00",11.2,9.6,0.0,0.0,0,1015.2,3,15,"",90
"2015-12-30 02:44:00",11.3,9.7,0.0,0.0,0,1015.2,5,12,"",90
"2015-12-30 02:45:00",11.3,9.7,0.0,0.0,0,1015.2,6,12,"",90
"2015-12-30 02:46:00",11.3,9.7,0.0,0.0,0,1015.2,7,15,"",90
"2015-12-30 02:47:00",11.3,9.7,0.0,0.0,0,1015.1,9,12,"",90
"2015-12-30 02:48:00",11.3,9.7,0.0,0.0,0,1015.1,6,23,"",90
"2015-12-30 02:49:00",11.3,9.7,0.0,0.0,0,1015.1,8,23,"",90
"2015-12-30 02:50:00",11.3,9.7,0.0,0.0,0,1015.1,8,16,"",90
"2015-12-30 02:51:00",11.3,9.7,0.0,0.0,0,1015.1,7,22,"",90
"2015-12-30 02:52:00",11.2,9.7,0.0,0.0,0,1015.0,8,22,"",90
"2015-12-30 02:53:00",11.3,9.7,0.0,0.0,0,1015.0,8,12,"",90
"2015-12-30 02:54:00",11.3,9.7,0.0,0.0,0,1015.1,9,20,"",90
"2015-12-30 02:55:00",11.3,9.7,0.0,0.0,0,1015.0,9,18,"",90
"2015-12-30 02:56:00",11.3,9.7,0.0,0.0,0,1015.0,7,12,"",90
"2015-12-30 02:57:00",11.3,9.7,0.0,0.0,0,1015.0,8,12,"",90
"2015-12-30 02:58:00",11.2,9.7,0.0,0.0,0,1015.0,7,15,"",90
"2015-12-30 02:59:00",11.2,9.6,0.0,0.0,0,1015.0,8,15,"",90
"2015-12-30 03:00:00",11.3,9.7,0.0,0.0,0,1015.0,7,8,"",90
"2015-12-30 03:01:00",11.3,9.7,0.0,0.0,0,1014.9,5,10,"",90
"2015-12-30 03:02:00",11.3,9.7,0.0,0.0,0,1014.9,7,12,"",90
"2015-12-30 03:03:00",11.3,9.7,0.0,0.0,0,1015.0,8,15,"",90
"2015-12-30 03:04:00",11.3,9.8,0.0,0.0,0,1014.9,7,12,"",90
"2015-12-30 03:05:00",11.3,9.8,0.0,0.0,0,1014.9,8,12,"",90
"2015-12-30 03:06:00",11.3,9.8,0.0,0.0,0,1014.9,7,18,"",90
"2015-12-30 03:07:00",11.3,9.6,0.0,0.0,0,1014.9,5,5,"",89
"2015-12-30 03:08:00",11.3,9.6,0.0,0.0,0,1014.9,6,17,"",89
"2015-12-30 03:09:00",11.3,9.6,0.0,0.0,0,1014.9,8,10,"",89
"2015-12-30 03:10:00",11.3,9.6,0.0,0.0,0,1014.8,7,10,"",89
"2015-12-30 03:11:00",11.3,9.6,0.0,0.0,0,1014.8,6,12,"",89
"2015-12-30 03:12:00",11.3,9.6,0.0,0.0,0,1014.9,6,14,"",89
"2015-12-30 03:13:00",11.3,9.6,0.0,0.0,0,1014.9,6,12,"",89
"2015-12-30 03:14:00",11.3,9.6,0.0,0.0,0,1014.7,6,8,"",89
"2015-12-30 03:15:00",11.3,9.6,0.0,0.0,0,1014.7,7,22,"",89
"2015-12-30 03:16:00",11.3,9.6,0.0,0.0,0,1014.7,7,7,"",89
"2015-12-30 03:17:00",11.3,9.5,0.0,0.0,0,1014.8,5,7,"",89
"2015-12-30 03:18:00",11.2,9.5,0.0,0.0,0,1014.9,6,12,"",89
"2015-12-30 03:19:00",11.2,9.3,0.0,0.0,0,1014.8,7,17,"",88
"2015-12-30 03:20:00",11.3,9.4,0.0,0.0,0,1014.8,7,12,"",88
"2015-12-30 03:21:00",11.4,9.5,0.0,0.0,0,1014.7,7,22,"",88
"2015-12-30 03:22:00",11.4,9.5,0.0,0.0,0,1014.7,10,12,"",88
"2015-12-30 03:23:00",11.4,9.5,0.0,0.0,0,1014.9,7,10,"",88
"2015-12-30 03:24:00",11.4,9.5,0.0,0.0,0,1014.8,5,10,"",88
"2015-12-30 03:25:00",11.5,9.5,0.0,0.0,0,1014.8,5,7,"",88
"2015-12-30 03:26:00",11.5,9.6,0.0,0.0,0,1014.7,3,10,"",88
"2015-12-30 03:27:00",11.5,9.6,0.0,0.0,0,1014.8,7,12,"",88
"2015-12-30 03:28:00",11.5,9.6,0.0,0.0,0,1014.8,5,12,"",88
"2015-12-30 03:29:00",11.5,9.6,0.0,0.0,0,1014.8,7,9,"",88
"2015-12-30 03:30:00",11.5,9.6,0.0,0.0,0,1014.8,6,10,"",88
"2015-12-30 03:31:00",11.5,9.6,0.0,0.0,0,1014.9,6,14,"",88
"2015-12-30 03:32:00",11.5,9.4,0.0,0.0,0,1014.6,7,14,"",87
"2015-12-30 03:33:00",11.5,9.4,0.0,0.0,0,1014.7,3,9,"",87
"2015-12-30 03:34:00",11.5,9.4,0.0,0.0,0,1014.7,5,7,"",87
"2015-12-30 03:35:00",11.5,9.4,0.0,0.0,0,1014.8,5,18,"",87
"2015-12-30 03:36:00",11.5,9.4,0.0,0.0,0,1014.8,8,18,"",87
"2015-12-30 03:37:00",11.5,9.4,0.0,0.0,0,1014.8,8,12,"",87
"2015-12-30 03:38:00",11.5,9.4,0.0,0.0,0,1014.7,6,12,"",87
"2015-12-30 03:39:00",11.5,9.5,0.0,0.0,0,1014.8,6,7,"",88
"2015-12-30 03:40:00",11.6,9.5,0.0,0.0,0,1014.7,5,9,"",87
"2015-12-30 03:41:00",11.6,9.5,0.0,0.0,0,1014.8,7,23,"",87
"2015-12-30 03:42:00",11.6,9.5,0.0,0.0,0,1014.7,8,14,"",87
"2015-12-30 03:43:00",11.6,9.5,0.0,0.0,0,1014.7,6,7,"",87
"2015-12-30 03:44:00",11.6,9.5,0.0,0.0,0,1014.8,7,20,"",87
"2015-12-30 03:45:00",11.6,9.5,0.0,0.0,0,1014.8,9,14,"",87
"2015-12-30 03:46:00",11.6,9.5,0.0,0.0,0,1014.7,7,10,"",87
"2015-12-30 03:47:00",11.6,9.5,0.0,0.0,0,1014.6,6,7,"",87
"2015-12-30 03:48:00",11.6,9.5,0.0,0.0,0,1014.7,3,17,"",87
"2015-12-30 03:49:00",11.6,9.5,0.0,0.0,0,1014.9,8,17,"",87
"2015-12-30 03:50:00",11.6,9.3,0.0,0.0,0,1014.6,7,18,"",86
"2015-12-30 03:51:00",11.6,9.3,0.0,0.0,0,1014.6,9,16,"",86
"2015-12-30 03:52:00",11.6,9.3,0.0,0.0,0,1014.6,7,9,"",86
"2015-12-30 03:53:00",11.6,9.3,0.0,0.0,0,1014.6,5,9,"",86
"2015-12-30 03:54:00",11.6,9.4,0.0,0.0,0,1014.6,6,9,"",86
"2015-12-30 03:55:00",11.6,9.3,0.0,0.0,0,1014.6,7,26,"",86
"2015-12-30 03:56:00",11.7,9.4,0.0,0.0,0,1014.6,9,12,"",86
"2015-12-30 03:57:00",11.7,9.4,0.0,0.0,0,1014.7,7,16,"",86
"2015-12-30 03:58:00",11.7,9.4,0.0,0.0,0,1014.6,7,15,"",86
"2015-12-30 03:59:00",11.7,9.4,0.0,0.0,0,1014.6,6,16,"",86
"2015-12-30 04:00:00",11.7,9.4,0.0,0.0,0,1014.6,7,12,"",86
"2015-12-30 04:01:00",11.7,9.4,0.0,0.0,0,1014.6,7,15,"",86
"2015-12-30 04:02:00",11.7,9.4,0.0,0.0,0,1014.6,9,15,"",86
"2015-12-30 04:03:00",11.7,9.4,0.0,0.0,0,1014.5,7,22,"",86
"2015-12-30 04:04:00",11.7,9.4,0.0,0.0,0,1014.6,8,21,"",86
"2015-12-30 04:05:00",11.7,9.4,0.0,0.0,0,1014.5,6,12,"",86
"2015-12-30 04:06:00",11.7,9.3,0.0,0.0,0,1014.6,8,17,"",85
"2015-12-30 04:07:00",11.7,9.3,0.0,0.0,0,1014.6,9,18,"",85
"2015-12-30 04:08:00",11.7,9.3,0.0,0.0,0,1014.4,7,18,"",85
"2015-12-30 04:09:00",11.7,9.3,0.0,0.0,0,1014.5,9,16,"",85
"2015-12-30 04:10:00",11.7,9.3,0.0,0.0,0,1014.5,10,12,"",85
"2015-12-30 04:11:00",11.8,9.3,0.0,0.0,0,1014.5,7,9,"",85
"2015-12-30 04:12:00",11.8,9.3,0.0,0.0,0,1014.6,7,16,"",85
"2015-12-30 04:13:00",11.8,9.3,0.0,0.0,0,1014.6,12,18,"",85
"2015-12-30 04:14:00",11.8,9.3,0.0,0.0,0,1014.5,9,14,"",85
"2015-12-30 04:15:00",11.8,9.3,0.0,0.0,0,1014.5,8,12,"",85
"2015-12-30 04:16:00",11.8,9.2,0.0,0.0,0,1014.5,7,12,"",84
"2015-12-30 04:17:00",11.8,9.2,0.0,0.0,0,1014.5,5,9,"",84
"2015-12-30 04:18:00",11.8,9.4,0.0,0.0,0,1014.4,5,6,"",85
"2015-12-30 04:19:00",11.8,9.4,0.0,0.0,0,1014.5,3,14,"",85
"2015-12-30 04:20:00",11.8,9.4,0.0,0.0,0,1014.5,7,12,"",85
"2015-12-30 04:21:00",11.8,9.2,0.0,0.0,0,1014.4,7,12,"",84
"2015-12-30 04:22:00",11.8,9.4,0.0,0.0,0,1014.4,6,12,"",85
"2015-12-30 04:23:00",11.8,9.4,0.0,0.0,0,1014.4,7,12,"",85
"2015-12-30 04:24:00",11.8,9.4,0.0,0.0,0,1014.3,6,7,"",85
"2015-12-30 04:25:00",11.8,9.4,0.0,0.0,0,1014.4,5,12,"",85
"2015-12-30 04:26:00",11.8,9.4,0.0,0.0,0,1014.4,7,20,"",85
"2015-12-30 04:27:00",11.8,9.4,0.0,0.0,0,1014.4,8,12,"",85
"2015-12-30 04:28:00",11.8,9.4,0.0,0.0,0,1014.4,7,14,"",85
"2015-12-30 04:29:00",11.8,9.2,0.0,0.0,0,1014.3,6,8,"",84
"2015-12-30 04:30:00",11.8,9.2,0.0,0.0,0,1014.2,6,12,"",84
"2015-12-30 04:31:00",11.8,9.2,0.0,0.0,0,1014.2,7,18,"",84
"2015-12-30 04:32:00",11.8,9.2,0.0,0.0,0,1014.2,9,15,"",84
"2015-12-30 04:33:00",11.8,9.2,0.0,0.0,0,1014.3,10,15,"",84
"2015-12-30 04:34:00",11.8,9.2,0.0,0.0,0,1014.2,9,21,"",84
"2015-12-30 04:35:00",11.8,9.2,0.0,0.0,0,1014.2,12,20,"",84
"2015-12-30 04:36:00",11.8,9.2,0.0,0.0,0,1014.2,9,12,"",84
"2015-12-30 04:37:00",11.8,9.2,0.0,0.0,0,1014.2,6,9,"",84
"2015-12-30 04:38:00",11.8,9.2,0.0,0.0,0,1014.2,6,21,"",84
"2015-12-30 04:39:00",11.8,9.2,0.0,0.0,0,1014.1,9,15,"",84
"2015-12-30 04:40:00",11.8,9.2,0.0,0.0,0,1014.1,9,18,"",84
"2015-12-30 04:41:00",11.8,9.2,0.0,0.0,0,1014.0,8,7,"",84
"2015-12-30 04:42:00",11.8,9.2,0.0,0.0,0,1014.0,5,12,"",84
"2015-12-30 04:43:00",11.8,9.2,0.0,0.0,0,1014.1,5,8,"",84
"2015-12-30 04:44:00",11.8,9.2,0.0,0.0,0,1014.0,5,12,"",84
"2015-12-30 04:45:00",11.8,9.2,0.0,0.0,0,1014.0,6,12,"",84
"2015-12-30 04:46:00",11.8,9.2,0.0,0.0,0,1013.9,6,12,"",84
"2015-12-30 04:47:00",11.8,9.2,0.0,0.0,0,1013.8,6,8,"",84
"2015-12-30 04:48:00",11.8,9.2,0.0,0.0,0,1013.8,2,14,"",84
"2015-12-30 04:49:00",11.8,9.2,0.0,0.0,0,1013.9,5,14,"",84
"2015-12-30 04:50:00",11.8,9.2,0.0,0.0,0,1013.8,3,5,"",84
"2015-12-30 04:51:00",11.8,9.2,0.0,0.0,0,1013.7,5,12,"",84
"2015-12-30 04:52:00",11.8,9.2,0.0,0.0,0,1013.8,7,14,"",84
"2015-12-30 04:53:00",11.8,9.2,0.0,0.0,0,1013.8,7,12,"",84
"2015-12-30 04:54:00",11.8,9.2,0.0,0.0,0,1013.8,6,10,"",84
"2015-12-30 04:55:00",11.8,9.2,0.0,0.0,0,1013.8,6,10,"",84
"2015-12-30 04:56:00",11.8,9.2,0.0,0.0,0,1013.8,8,17,"",84
"2015-12-30 04:57:00",11.8,9.2,0.0,0.0,0,1013.8,10,12,"",84
"2015-12-30 04:58:00",11.8,9.2,0.0,0.0,0,1013.8,7,10,"",84
"2015-12-30 04:59:00",11.8,9.2,0.0,0.0,0,1013.8,8,20,"",84
"2015-12-30 05:00:00",11.8,9.2,0.0,0.0,0,1013.8,8,12,"",84
"2015-12-30 05:01:00",11.8,9.2,0.0,0.0,0,1013.8,8,14,"",84
"2015-12-30 05:02:00",11.8,9.1,0.0,0.0,0,1013.8,8,12,"",84
"2015-12-30 05:03:00",11.8,9.1,0.0,0.0,0,1013.7,7,12,"",84
"2015-12-30 05:04:00",11.7,9.1,0.0,0.0,0,1013.8,8,16,"",84
"2015-12-30 05:05:00",11.7,9.1,0.0,0.0,0,1013.8,8,12,"",84
"2015-12-30 05:06:00",11.7,9.1,0.0,0.0,0,1013.8,6,12,"",84
"2015-12-30 05:07:00",11.7,9.1,0.0,0.0,0,1013.7,7,17,"",84
"2015-12-30 05:08:00",11.7,9.1,0.0,0.0,0,1013.8,7,10,"",84
"2015-12-30 05:09:00",11.7,9.1,0.0,0.0,0,1013.8,7,16,"",84
"2015-12-30 05:10:00",11.7,9.1,0.0,0.0,0,1013.8,6,10,"",84
"2015-12-30 05:11:00",11.7,9.1,0.0,0.0,0,1013.8,6,12,"",84
"2015-12-30 05:12:00",11.7,9.1,0.0,0.0,0,1013.8,8,16,"",84
"2015-12-30 05:13:00",11.7,9.1,0.0,0.0,0,1013.6,8,15,"",84
"2015-12-30 05:14:00",11.7,9.1,0.0,0.0,0,1013.7,9,16,"",84
"2015-12-30 05:15:00",11.7,9.1,0.0,0.0,0,1013.7,6,6,"",84
"2015-12-30 05:16:00",11.7,9.1,0.0,0.0,0,1013.6,3,6,"",84
"2015-12-30 05:17:00",11.7,9.1,0.0,0.0,0,1013.7,5,12,"",84
"2015-12-30 05:18:00",11.7,9.1,0.0,0.0,0,1013.6,6,9,"",84
"2015-12-30 05:19:00",11.7,9.1,0.0,0.0,0,1013.7,7,15,"",84
"2015-12-30 05:20:00",11.7,9.1,0.0,0.0,0,1013.7,7,12,"",84
"2015-12-30 05:21:00",11.7,9.1,0.0,0.0,0,1013.6,3,7,"",84
"2015-12-30 05:22:00",11.7,9.1,0.0,0.0,0,1013.7,3,12,"",84
"2015-12-30 05:23:00",11.7,9.1,0.0,0.0,0,1013.6,6,16,"",84
"2015-12-30 05:24:00",11.7,9.1,0.0,0.0,0,1013.5,7,16,"",84
"2015-12-30 05:25:00",11.7,9.1,0.0,0.0,0,1013.6,7,10,"",84
"2015-12-30 05:26:00",11.7,9.1,0.0,0.0,0,1013.7,6,12,"",84
"2015-12-30 05:27:00",11.7,9.1,0.0,0.0,0,1013.6,8,12,"",84
"2015-12-30 05:28:00",11.7,9.1,0.0,0.0,0,1013.6,6,12,"",84
"2015-12-30 05:29:00",11.7,9.1,0.0,0.0,0,1013.6,8,14,"",84
"2015-12-30 05:30:00",11.7,8.9,0.0,0.0,0,1013.6,7,9,"",83
"2015-12-30 05:31:00",11.7,8.9,0.0,0.0,0,1013.5,5,9,"",83
"2015-12-30 05:32:00",11.7,8.9,0.0,0.0,0,1013.7,7,25,"",83
"2015-12-30 05:33:00",11.7,8.9,0.0,0.0,0,1013.7,7,14,"",83
"2015-12-30 05:34:00",11.7,8.9,0.0,0.0,0,1013.6,7,12,"",83
"2015-12-30 05:35:00",11.7,8.9,0.0,0.0,0,1013.6,7,20,"",83
"2015-12-30 05:36:00",11.7,8.9,0.0,0.0,0,1013.7,10,20,"",83
"2015-12-30 05:37:00",11.7,8.9,0.0,0.0,0,1013.6,6,12,"",83
"2015-12-30 05:38:00",11.7,8.9,0.0,0.0,0,1013.7,7,12,"",83
"2015-12-30 05:39:00",11.7,8.9,0.0,0.0,0,1013.7,6,9,"",83
"2015-12-30 05:40:00",11.7,8.9,0.0,0.0,0,1013.6,5,17,"",83
"2015-12-30 05:41:00",11.7,8.9,0.0,0.0,0,1013.6,8,14,"",83
"2015-12-30 05:42:00",11.7,8.9,0.0,0.0,0,1013.6,5,10,"",83
"2015-12-30 05:43:00",11.7,8.9,0.0,0.0,0,1013.6,5,12,"",83
"2015-12-30 05:44:00",11.7,8.9,0.0,0.0,0,1013.4,9,21,"",83
"2015-12-30 05:45:00",11.7,8.9,0.0,0.0,0,1013.5,8,10,"",83
"2015-12-30 05:46:00",11.7,8.9,0.0,0.0,0,1013.5,5,9,"",83
"2015-12-30 05:47:00",11.7,8.9,0.0,0.0,0,1013.5,7,12,"",83
"2015-12-30 05:48:00",11.7,8.9,0.0,0.0,0,1013.4,7,12,"",83
"2015-12-30 05:49:00",11.7,8.9,0.0,0.0,0,1013.5,8,17,"",83
"2015-12-30 05:50:00",11.7,8.7,0.0,0.0,0,1013.5,9,17,"",82
"2015-12-30 05:51:00",11.7,8.7,0.0,0.0,0,1013.5,7,9,"",82
"2015-12-30 05:52:00",11.7,8.7,0.0,0.0,0,1013.5,5,6,"",82
"2015-12-30 05:53:00",11.7,8.7,0.0,0.0,0,1013.4,2,6,"",82
"2015-12-30 05:54:00",11.7,8.7,0.0,0.0,0,1013.5,3,5,"",82
"2015-12-30 05:55:00",11.7,8.7,0.0,0.0,0,1013.5,3,12,"",82
"2015-12-30 05:56:00",11.7,8.7,0.0,0.0,0,1013.5,7,10,"",82
"2015-12-30 05:57:00",11.7,8.7,0.0,0.0,0,1013.5,6,14,"",82
"2015-12-30 05:58:00",11.7,8.7,0.0,0.0,0,1013.4,7,12,"",82
"2015-12-30 05:59:00",11.7,8.7,0.0,0.0,0,1013.4,8,12,"",82
"2015-12-30 06:00:00",11.7,8.7,0.0,0.0,0,1013.5,8,17,"",82
"2015-12-30 06:01:00",11.7,8.7,0.0,0.0,0,1013.5,9,18,"",82
"2015-12-30 06:02:00",11.7,8.7,0.0,0.0,0,1013.5,7,12,"",82
"2015-12-30 06:03:00",11.7,8.7,0.0,0.0,0,1013.4,5,6,"",82
"2015-12-30 06:04:00",11.7,8.7,0.0,0.0,0,1013.4,3,10,"",82
"2015-12-30 06:05:00",11.7,8.7,0.0,0.0,0,1013.4,6,8,"",82
"2015-12-30 06:06:00",11.7,8.7,0.0,0.0,0,1013.4,6,12,"",82
"2015-12-30 06:07:00",11.7,8.7,0.0,0.0,0,1013.4,5,5,"",82
"2015-12-30 06:08:00",11.7,8.7,0.0,0.0,0,1013.3,5,10,"",82
"2015-12-30 06:09:00",11.7,8.7,0.0,0.0,0,1013.3,5,6,"",82
"2015-12-30 06:10:00",11.7,8.7,0.0,0.0,0,1013.3,5,9,"",82
"2015-12-30 06:11:00",11.7,8.7,0.0,0.0,0,1013.2,5,18,"",82
"2015-12-30 06:12:00",11.7,8.7,0.0,0.0,0,1013.2,10,14,"",82
"2015-12-30 06:13:00",11.7,8.7,0.0,0.0,0,1013.3,9,16,"",82
"2015-12-30 06:14:00",11.7,8.7,0.0,0.0,0,1013.3,8,12,"",82
"2015-12-30 06:15:00",11.7,8.6,0.0,0.0,0,1013.3,7,8,"",81
"2015-12-30 06:16:00",11.7,8.6,0.0,0.0,0,1013.2,6,12,"",81
"2015-12-30 06:17:00",11.7,8.6,0.0,0.0,0,1013.3,6,7,"",81
"2015-12-30 06:18:00",11.7,8.6,0.0,0.0,0,1013.3,5,9,"",81
"2015-12-30 06:19:00",11.7,8.6,0.0,0.0,0,1013.2,7,15,"",81
"2015-12-30 06:20:00",11.7,8.6,0.0,0.0,0,1013.2,7,7,"",81
"2015-12-30 06:21:00",11.7,8.6,0.0,0.0,0,1013.1,5,9,"",81
"2015-12-30 06:22:00",11.7,8.6,0.0,0.0,0,1013.1,6,10,"",81
"2015-12-30 06:23:00",11.7,8.6,0.0,0.0,0,1013.2,8,18,"",81
"2015-12-30 06:24:00",11.7,8.6,0.0,0.0,0,1013.2,10,20,"",81
"2015-12-30 06:25:00",11.7,8.6,0.0,0.0,0,1013.1,10,15,"",81
"2015-12-30 06:26:00",11.7,8.4,0.0,0.0,0,1013.1,7,15,"",80
"2015-12-30 06:27:00",11.7,8.4,0.0,0.0,0,1013.0,8,15,"",80
"2015-12-30 06:28:00",11.7,8.6,0.0,0.0,0,1013.0,7,9,"",81
"2015-12-30 06:29:00",11.7,8.6,0.0,0.0,0,1013.0,6,10,"",81
"2015-12-30 06:30:00",11.7,8.6,0.0,0.0,0,1012.9,6,7,"",81
"2015-12-30 06:31:00",11.7,8.6,0.0,0.0,0,1013.0,5,9,"",81
"2015-12-30 06:32:00",11.7,8.4,0.0,0.0,0,1012.9,6,12,"",80
"2015-12-30 06:33:00",11.7,8.4,0.0,0.0,0,1012.8,6,10,"",80
"2015-12-30 06:34:00",11.7,8.4,0.0,0.0,0,1012.8,7,12,"",80
"2015-12-30 06:35:00",11.7,8.4,0.0,0.0,0,1012.9,7,10,"",80
"2015-12-30 06:36:00",11.7,8.4,0.0,0.0,0,1012.9,7,15,"",80
"2015-12-30 06:37:00",11.7,8.4,0.0,0.0,0,1012.7,9,18,"",80
"2015-12-30 06:38:00",11.7,8.4,0.0,0.0,0,1012.6,10,18,"",80
"2015-12-30 06:39:00",11.7,8.4,0.0,0.0,0,1012.6,12,18,"",80
"2015-12-30 06:40:00",11.7,8.4,0.0,0.0,0,1012.7,9,16,"",80
"2015-12-30 06:41:00",11.7,8.4,0.0,0.0,0,1012.7,9,20,"",80
"2015-12-30 06:42:00",11.7,8.2,0.0,0.0,0,1012.6,10,18,"",79
"2015-12-30 06:43:00",11.7,8.2,0.0,0.0,0,1012.6,8,10,"",79
"2015-12-30 06:44:00",11.8,8.3,0.0,0.0,0,1012.5,8,17,"",79